Tracking 28348 objects as of 9-Dec-2023
HD Live streaming from Space Station
objects crossing your sky now

STARLINK-3593

Track STARLINK-3593 now!
10-day predictions
STARLINK-3593 is classified as:


NORAD ID: 51896
Int'l Code: 2022-022AW
Perigee: 546.0 km
Apogee: 547.8 km
Inclination: 53.2 °
Period: 95.4 minutes
Semi major axis: 6917 km
RCS: Unknown
Launch date: March 3, 2022
Source: United States (US)
Launch site: AIR FORCE EASTERN TEST RANGE (AFETR)
Your satellite tracking list
Your tracking list is empty




NASA's NSSDC Master Catalog

Two Line Element Set (TLE):
1 51896U 22022AW  23342.71590107  .00001294  00000-0  99378-4 0  9997
2 51896  53.2173  89.3256 0001281  91.8869 268.2270 15.08842355 99206
Source of the keplerian elements: AFSPC